Wind_Speed
12 13 15 17 16 15 14 14 13 14 14 16 18 20 22 23 25 27 30 32 33 35 35 36 36 37 39 39 41 43 45 44 45 46 47 46 52 51 49 46 48 49 57 54 51
11 13 15 15 14 16 15 18 18 19 19 19 19 22 24 27 29 31 34 36 38 39 40 40 41 41 43 45 46 47 48 49 48 48 51 49 48 51 53 52 49 52 51 58 55
11 13 14 11 11 15 18 19 20 21 22 24 26 28 29 31 32 34 37 39 40 42 44 44 43 43 45 48 50 51 52 53 53 53 52 51 52 51 53 55 54 54 56 54 61
13 14 10 9 9 16 20 22 25 28 30 31 32 34 35 36 38 39 41 43 44 47 47 47 45 45 47 49 52 53 56 57 56 57 58 58 58 56 56 56 57 57 56 60 57
15 12 10 10 13 17 23 28 31 33 34 37 38 38 39 39 41 43 45 45 44 45 43 43 43 43 44 47 49 51 53 54 56 57 60 61 63 64 62 62 61 61 59 61 65
14 13 13 16 20 24 29 33 36 39 41 43 42 41 41 43 43 43 45 44 43 42 40 40 40 42 42 44 47 48 49 50 51 54 57 61 63 66 66 69 66 65 62 64 68
16 16 17 21 24 28 33 36 39 42 43 42 42 43 43 42 42 42 41 41 40 39 39 39 41 43 45 45 43 42 40 38 41 45 48 57 61 64 68 70 71 71 66 66 69
17 19 21 26 30 31 34 37 39 40 40 41 42 41 40 39 37 39 38 36 37 38 38 39 40 42 41 31 25 23 20 18 20 22 27 33 44 45 52 61 69 70 69 68 73
21 23 25 26 28 31 33 35 37 38 41 41 39 39 38 38 36 34 36 39 38 37 39 40 40 35 26 25 22 23 21 21 20 26 29 31 26 22 32 39 52 66 69 67 73
25 26 26 27 29 31 35 37 38 40 41 38 38 40 37 36 35 37 38 37 36 38 40 40 35 27 27 26 25 25 23 23 20 22 26 26 24 26 30 37 33 46 63 65 72
27 28 28 29 31 33 34 35 38 38 36 36 37 34 33 34 35 36 35 32 36 37 40 39 31 30 26 25 26 26 25 24 22 25 25 26 25 25 25 30 36 30 44 59 64
28 30 31 32 33 34 35 34 35 36 36 36 36 33 29 30 33 35 37 36 36 39 39 38 28 26 25 24 24 25 28 26 24 24 32 31 26 27 28 25 28 32 32 42 59
30 34 34 34 33 34 35 37 37 38 37 32 37 34 32 30 33 36 39 36 38 35 34 29 17 25 27 25 26 27 27 24 25 23 29 36 29 31 30 29 24 25 33 36 48
33 35 34 34 33 34 36 38 37 38 38 38 40 36 34 33 34 37 38 40 40 37 29 25 20 22 26 25 25 28 25 28 30 32 31 33 37 32 28 28 21 22 30 37 37
34 35 34 33 32 33 35 36 37 37 39 40 41 37 35 36 38 41 40 39 41 38 32 22 22 23 25 25 25 28 31 33 35 37 39 41 42 34 27 20 27 27 28 36 43
36 35 33 32 31 32 34 35 35 37 38 39 37 32 35 36 39 40 39 40 43 38 33 26 23 25 24 24 27 31 34 36 38 39 39 38 39 30 19 20 26 28 29 29 39
36 34 32 30 31 31 33 34 34 35 38 39 37 31 33 35 38 38 38 40 37 36 32 26 25 25 22 25 30 33 35 35 36 34 33 36 37 28 22 14 17 21 20 33 39
36 34 31 30 30 31 33 34 34 34 35 38 38 34 34 35 37 37 38 40 40 38 31 27 17 19 23 29 34 32 28 32 35 34 35 35 31 31 30 26 28 24 20 21 25
38 35 31 29 29 31 33 34 35 36 37 39 40 40 35 34 34 36 38 40 40 36 30 20 7 12 24 29 33 31 30 30 33 33 39 36 34 30 29 26 25 29 30 26 27
38 35 30 29 29 31 32 33 35 37 38 40 41 39 36 34 34 39 42 43 40 38 31 25 17 13 23 27 27 28 29 30 30 34 39 33 31 30 27 25 27 29 32 27 29
38 35 32 30 29 31 33 31 35 38 40 40 42 41 36 38 38 39 42 46 43 37 33 29 27 17 19 25 21 25 25 30 29 28 32 33 27 26 23 23 24 26 34 33 31
38 36 34 32 31 30 33 33 35 39 41 41 41 42 40 40 40 40 45 42 43 39 34 27 29 25 21 26 23 21 25 26 24 28 32 34 32 27 27 22 23 23 30 31 34
36 35 34 33 33 32 33 36 38 41 43 42 41 41 45 38 41 42 41 40 41 37 34 27 25 28 16 20 25 30 29 29 28 30 30 37 30 32 26 22 26 25 25 36 33
39 35 33 34 35 34 33 36 41 43 43 43 41 40 45 41 41 41 38 38 37 38 29 27 24 27 28 28 30 32 26 25 28 33 32 29 24 21 29 33 26 28 30 33 34
39 35 34 38 39 35 35 38 43 42 42 44 43 40 43 44 42 37 38 38 34 36 30 27 30 28 24 30 32 31 31 26 29 30 34 31 37 32 29 28 27 29 32 32 32
39 36 36 38 40 38 39 41 41 41 41 43 44 42 41 41 42 37 37 38 36 34 26 24 26 29 27 33 33 23 19 21 23 26 31 32 34 35 27 28 27 26 29 30 32
39 40 41 38 37 38 38 39 39 41 41 45 46 44 42 40 40 38 37 39 38 33 26 26 26 31 29 35 27 16 17 18 19 24 31 34 35 30 20 22 22 24 27 28 30
Wind_Direction
18 17 11 9 9 12 13 8 358 344 330 318 307 299 295 290 285 285 285 283 282 280 277 275 271 269 267 264 263 261 258 255 252 251 249 246 246 244 240 233 232 235 229 227 230
1 4 6 7 16 25 30 25 13 3 354 343 326 312 302 294 289 286 283 282 281 278 276 275 273 270 268 265 265 263 261 259 256 253 251 248 248 247 244 240 233 233 234 227 226
1 3 1 13 26 26 15 5 356 346 337 330 323 316 310 302 295 286 284 282 280 279 278 276 273 272 269 267 266 265 266 262 260 257 253 248 247 245 246 242 236 232 234 232 228
2 358 3 3 12 2 358 354 347 342 338 332 326 319 311 304 294 290 286 284 283 282 281 281 280 278 277 276 274 272 267 264 264 261 256 250 243 240 241 241 240 233 230 234 230
355 352 354 351 337 339 339 340 340 336 332 329 325 318 312 304 298 296 292 289 289 289 289 288 287 286 286 283 280 277 273 272 268 264 260 255 249 243 237 236 236 235 228 229 233
350 343 333 337 335 331 336 339 336 332 329 326 322 315 308 301 300 294 292 294 294 292 293 292 290 290 287 284 280 274 269 263 260 256 253 253 250 248 241 236 233 233 228 227 232
345 341 336 330 328 329 332 333 331 329 328 325 321 315 309 305 302 301 300 298 296 295 292 291 291 290 290 288 283 275 268 265 260 258 257 252 247 247 246 239 234 232 227 223 226
343 336 333 330 329 328 330 330 331 330 328 325 319 314 311 312 310 308 303 300 296 294 292 292 293 295 289 278 269 265 259 253 266 268 267 261 253 252 254 249 239 233 231 222 222
336 334 332 332 331 330 330 332 330 330 327 324 321 318 320 318 315 309 307 305 301 298 297 297 297 289 262 253 252 257 260 261 265 273 270 279 293 286 267 259 247 236 232 226 221
339 336 333 333 331 332 332 330 329 330 327 327 326 328 325 321 314 312 311 308 305 303 302 300 292 266 258 257 254 262 266 263 266 273 273 277 287 294 274 260 254 242 232 228 221
337 335 334 333 332 332 331 333 332 332 332 334 332 331 326 318 315 314 311 306 305 308 309 304 280 256 257 262 262 265 269 268 272 278 277 275 282 286 282 272 258 249 236 229 225
340 336 335 334 333 332 333 336 335 337 342 339 336 333 327 319 314 315 314 311 310 312 311 305 278 263 262 261 267 273 276 272 276 275 279 278 277 282 281 283 268 249 240 229 221
337 337 335 333 333 335 338 339 342 344 348 344 341 332 325 317 317 320 320 315 310 315 310 301 261 255 259 257 260 268 275 282 281 274 276 281 279 278 281 277 273 258 237 230 220
337 334 333 333 334 338 341 343 346 346 350 345 342 331 327 322 323 323 322 318 315 315 308 296 261 257 259 263 265 266 272 277 283 284 285 278 281 272 274 278 267 249 240 230 231
332 332 331 335 334 338 341 342 347 348 349 347 344 337 329 327 324 327 324 322 316 312 311 297 266 259 259 265 273 279 282 285 287 288 289 286 283 280 274 261 248 238 233 231 231
333 333 332 333 332 335 340 342 347 348 347 347 346 340 332 329 327 327 325 320 316 311 304 303 283 267 263 270 273 277 284 285 288 291 289 289 287 272 281 259 238 245 231 225 230
331 330 329 330 331 334 336 340 345 345 344 345 346 335 329 327 330 329 329 325 322 314 299 300 290 287 284 279 282 286 288 292 290 283 287 289 285 278 258 251 235 241 242 236 233
328 327 329 327 328 330 334 338 340 341 342 342 341 339 332 330 331 332 335 333 333 329 317 290 281 279 279 286 288 288 289 289 289 292 289 285 289 280 267 259 243 238 235 237 244
324 324 326 323 325 327 332 333 337 339 342 341 340 340 337 334 333 337 338 338 340 337 336 325 309 293 288 291 288 294 292 291 286 287 287 290 288 286 280 257 239 243 248 236 237
324 322 322 320 322 325 328 330 333 338 342 341 339 340 339 330 329 331 333 336 338 335 326 318 302 296 290 280 284 293 298 296 291 289 290 292 288 287 291 285 268 246 243 239 233
322 321 320 317 318 322 327 329 334 334 338 340 339 339 336 327 328 329 333 333 331 331 323 308 300 310 295 281 280 288 293 296 290 290 295 295 286 290 305 283 271 248 246 241 235
323 322 317 318 314 318 325 327 330 331 331 335 337 336 331 329 328 330 331 333 331 327 323 308 304 309 296 287 288 285 297 294 281 283 286 294 297 309 305 304 268 261 233 227 228
324 322 316 315 315 312 319 322 325 327 328 330 333 333 333 329 327 330 331 332 332 328 324 316 312 310 316 303 297 289 293 288 288 283 287 286 302 301 289 284 272 243 241 228 229
323 322 318 316 316 312 317 320 322 326 326 326 328 331 331 333 324 331 332 331 329 327 322 315 313 307 316 314 305 300 299 298 286 287 294 296 289 293 284 280 263 247 231 231 226
321 320 319 321 319 315 316 318 320 325 325 324 327 330 328 332 329 329 332 332 330 328 320 313 312 307 315 313 307 302 295 280 277 288 281 289 288 293 281 271 265 257 242 238 238
317 319 318 317 316 312 314 317 320 323 325 323 326 328 326 329 326 327 330 332 334 326 314 303 309 311 323 318 310 311 294 285 289 287 284 291 295 296 288 287 272 255 235 238 234
314 312 316 316 314 312 313 315 320 320 325 323 324 324 326 325 324 323 327 334 332 324 319 303 311 313 326 322 317 300 287 288 295 301 307 307 301 303 289 286 271 255 243 246 246
Height
5839 5838 5836 5833 5831 5829 5828 5826 5825 5824 5823 5822 5821 5819 5818 5817 5815 5813 5811 5810 5808 5806 5805 5804 5803 5802 5800 5799 5799 5798 5799 5801 5802 5803 5803 5807 5804 5808 5814 5819 5821 5821 5826 5830 5834
5839 5837 5835 5833 5831 5829 5827 5826 5824 5823 5821 5819 5817 5815 5812 5810 5808 5806 5803 5801 5799 5797 5795 5794 5792 5791 5789 5787 5786 5786 5787 5788 5789 5791 5792 5797 5797 5798 5802 5807 5813 5816 5816 5821 5825
5838 5836 5834 5832 5830 5829 5827 5825 5823 5821 5818 5816 5813 5809 5806 5802 5800 5797 5793 5790 5787 5785 5782 5781 5780 5778 5776 5774 5773 5773 5772 5772 5774 5775 5777 5782 5784 5787 5789 5795 5802 5806 5808 5811 5815
5837 5835 5833 5831 5829 5827 5825 5822 5820 5816 5813 5810 5806 5802 5797 5793 5790 5785 5782 5779 5776 5772 5769 5767 5766 5764 5763 5760 5758 5758 5755 5756 5758 5759 5761 5764 5767 5773 5775 5780 5785 5793 5798 5800 5804
5836 5834 5831 5829 5827 5824 5821 5818 5815 5811 5807 5803 5798 5793 5788 5783 5778 5774 5769 5765 5762 5758 5756 5754 5752 5750 5748 5744 5743 5742 5741 5741 5741 5743 5743 5746 5751 5755 5760 5762 5768 5775 5784 5789 5790
5835 5832 5830 5827 5824 5820 5817 5813 5809 5804 5799 5794 5789 5784 5779 5773 5767 5762 5757 5754 5749 5746 5743 5741 5739 5736 5734 5730 5728 5726 5725 5725 5725 5724 5725 5727 5734 5738 5747 5747 5755 5759 5769 5774 5777
5834 5831 5827 5824 5821 5816 5812 5806 5802 5796 5790 5785 5779 5774 5768 5763 5757 5751 5747 5743 5739 5735 5732 5729 5727 5724 5720 5716 5714 5711 5712 5710 5710 5708 5710 5711 5718 5722 5726 5731 5739 5745 5752 5759 5764
5831 5827 5824 5820 5816 5811 5806 5800 5795 5788 5783 5778 5772 5766 5760 5755 5749 5743 5737 5734 5731 5726 5722 5720 5716 5712 5708 5706 5705 5704 5704 5703 5701 5700 5698 5697 5705 5713 5711 5713 5723 5731 5739 5743 5748
5828 5824 5819 5815 5810 5805 5800 5794 5788 5782 5776 5770 5764 5758 5753 5747 5741 5736 5730 5725 5720 5717 5713 5710 5707 5703 5700 5699 5699 5697 5699 5698 5698 5695 5693 5692 5698 5702 5699 5699 5705 5714 5722 5730 5734
5825 5820 5815 5810 5806 5801 5794 5787 5781 5775 5769 5762 5756 5751 5746 5740 5734 5729 5723 5718 5713 5708 5704 5701 5697 5695 5693 5691 5692 5692 5692 5691 5691 5690 5687 5687 5689 5689 5689 5687 5692 5697 5706 5713 5721
5821 5816 5811 5805 5800 5795 5789 5783 5777 5771 5764 5757 5751 5745 5740 5734 5728 5722 5718 5713 5706 5701 5694 5689 5689 5687 5686 5685 5685 5685 5685 5684 5685 5683 5681 5680 5681 5680 5680 5679 5683 5688 5691 5700 5710
5817 5811 5806 5800 5795 5789 5784 5778 5772 5765 5758 5752 5745 5740 5736 5730 5723 5717 5712 5707 5700 5693 5688 5683 5681 5679 5679 5679 5679 5678 5677 5678 5678 5677 5673 5672 5674 5674 5673 5673 5674 5680 5683 5688 5694
5812 5807 5801 5796 5790 5786 5780 5774 5768 5760 5754 5747 5741 5735 5730 5725 5718 5711 5705 5700 5694 5688 5681 5676 5676 5673 5673 5674 5674 5672 5672 5672 5670 5670 5667 5663 5666 5665 5667 5667 5668 5671 5675 5677 5683
5808 5802 5797 5792 5788 5781 5775 5769 5763 5756 5751 5745 5737 5729 5724 5718 5713 5706 5699 5694 5687 5681 5676 5672 5669 5668 5667 5668 5667 5666 5667 5664 5663 5661 5660 5658 5654 5660 5660 5659 5661 5662 5665 5671 5674
5804 5798 5792 5787 5782 5777 5772 5765 5759 5753 5747 5741 5732 5724 5718 5713 5708 5700 5693 5686 5680 5674 5669 5668 5664 5663 5663 5662 5661 5659 5657 5656 5654 5652 5651 5649 5646 5650 5652 5650 5651 5654 5655 5662 5664
5799 5794 5788 5782 5777 5773 5766 5761 5755 5750 5742 5735 5728 5721 5715 5709 5703 5697 5689 5680 5672 5667 5662 5659 5657 5656 5656 5656 5654 5652 5650 5649 5646 5643 5642 5640 5637 5644 5646 5643 5644 5648 5651 5653 5653
5795 5789 5783 5778 5773 5768 5762 5757 5752 5746 5740 5733 5726 5719 5712 5705 5698 5691 5684 5676 5668 5661 5657 5655 5650 5649 5650 5649 5646 5645 5643 5639 5638 5636 5635 5632 5630 5634 5638 5637 5637 5639 5642 5645 5647
5790 5784 5779 5773 5769 5764 5759 5753 5747 5743 5736 5730 5722 5715 5707 5700 5694 5686 5678 5671 5662 5653 5645 5645 5648 5645 5644 5642 5637 5639 5638 5633 5628 5628 5626 5624 5622 5623 5624 5629 5630 5632 5635 5639 5640
5786 5780 5775 5769 5764 5760 5755 5749 5743 5737 5732 5725 5719 5711 5704 5696 5689 5683 5674 5666 5657 5650 5644 5638 5642 5642 5636 5635 5631 5629 5629 5629 5623 5621 5616 5617 5616 5615 5614 5617 5622 5625 5628 5631 5632
5781 5775 5771 5765 5760 5756 5751 5745 5739 5732 5726 5719 5712 5707 5698 5691 5686 5678 5670 5662 5654 5647 5643 5640 5637 5639 5635 5630 5627 5624 5623 5620 5617 5611 5607 5608 5606 5604 5607 5607 5609 5614 5616 5621 5625
5776 5770 5765 5761 5757 5752 5746 5741 5734 5727 5721 5715 5707 5700 5693 5685 5680 5673 5665 5658 5649 5644 5638 5633 5631 5634 5629 5623 5623 5620 5616 5612 5608 5606 5600 5597 5597 5597 5599 5598 5598 5601 5606 5610 5614
5770 5765 5760 5756 5752 5747 5741 5736 5731 5723 5716 5709 5702 5694 5687 5681 5674 5667 5660 5650 5643 5637 5632 5628 5623 5623 5622 5616 5615 5612 5609 5606 5602 5600 5595 5592 5588 5592 5590 5588 5588 5591 5595 5598 5603
5766 5760 5755 5751 5746 5741 5736 5731 5725 5718 5711 5704 5697 5690 5682 5675 5668 5662 5654 5647 5639 5632 5625 5622 5619 5613 5616 5613 5609 5605 5602 5598 5595 5591 5589 5584 5583 5581 5580 5580 5579 5577 5582 5588 5595
5758 5754 5749 5744 5740 5736 5732 5725 5719 5713 5706 5698 5693 5685 5677 5670 5662 5656 5649 5642 5635 5628 5622 5614 5615 5611 5608 5604 5601 5596 5594 5590 5588 5583 5580 5576 5571 5574 5571 5568 5569 5571 5572 5577 5582
5753 5748 5742 5737 5732 5728 5725 5720 5713 5708 5701 5693 5687 5680 5672 5667 5659 5653 5645 5637 5630 5622 5616 5611 5608 5605 5604 5598 5592 5588 5584 5583 5579 5577 5571 5570 5565 5564 5562 5560 5559 5560 5562 5566 5571
5746 5742 5737 5732 5727 5721 5717 5713 5707 5701 5696 5688 5681 5675 5666 5659 5651 5646 5640 5631 5626 5619 5612 5608 5603 5599 5598 5590 5583 5580 5576 5575 5573 5569 5564 5561 5558 5553 5551 5550 5550 5547 5549 5554 5559
5740 5735 5731 5726 5720 5715 5710 5705 5700 5694 5690 5680 5675 5669 5661 5654 5645 5638 5633 5627 5619 5612 5606 5602 5597 5593 5591 5583 5577 5575 5571 5569 5567 5563 5557 5553 5548 5544 5543 5540 5540 5540 5541 5545 5548